Location: Newark
(46.7333°N, 6.6667°E)
Time: 07:16:29
(UTC+00:00)

N. Korean satellite - Visible Passes

Search period start: 23 September 2020 00:00
Search period end: 03 October 2020 00:00
Orbit: 455 x 503 km, 97.2° (Epoch: 22 September)

Date Brightness Start Highest point End Pass type
(mag) Time Alt. Az. Time Alt. Az. Time Alt. Az.
23 Sep 8.7 04:39:01 10° NNE 04:42:21 32° E 04:45:37 10° SSE visible
24 Sep 9.8 04:13:45 10° NE 04:16:10 17° E 04:18:32 10° SE visible
26 Sep 7.8 04:54:09 10° NNE 04:57:43 49° E 05:01:12 10° S visible
27 Sep 9.3 04:28:33 10° NE 04:31:34 24° E 04:34:32 10° SSE visible
28 Sep 10.0 04:03:42 10° ENE 04:05:19 12° E 04:06:55 10° ESE visible
30 Sep 8.4 04:43:32 10° NNE 04:46:55 36° E 04:50:13 10° SSE visible
01 Oct 9.7 04:18:09 10° NE 04:20:44 18° E 04:23:15 10° SE visible
